COSMOS 1823 DEB

Satellite information

Favourite Embed

Satellite Type and Status

DEBRISIN ORBIT

Key statistics

Satellite COSMOS 1823 DEB at a glance.

Uptime

14182

Days in orbit

Revolutions

≈ 12.5

Per day

Orbit

LEO

Low Earth Orbit

Inclination

73.7

Latest

Satellite identification and parameters

Extended collection of information and parameters for COSMOS 1823 DEB.

Object identification

Identified? True

Debris? True

Object name: COSMOS 1823 DEB

International designator: 1987-020ER

Object number (NORAD): 39817

Object ID (CCSDS): 39817

Country: COMMONWEALTH OF INDEPENDENT STATES (CIS)

Current information (Y/N): Y

RCS size: SMALL

Orbital parameters

Period: 115.011 minutes

Inclination: 73.7154 deg

SMA: 7834.039 km

Apoapsis: 1468.241 km

Periapsis: 1443.568 km

RAAN: 131.4381 deg

Eccentricy: 0.00157473

Argument of periapsis: 84.9556 deg

Mean anomaly: 294.9678 deg

Mean motion: 12.52057126 rev/day

Mean motion (dot): 0.00000361 rev/day2

B* drag term: 0.0024220709 1/REarth

Two-line elements (TLE)

Creation date: Dec. 11, 2025, 7:14 p.m.

Reference frame: TEME

Reference center: EARTH

Epoch: Dec. 11, 2025, 3:38 p.m. UTC

TLE line 0: 0 COSMOS 1823 DEB

TLE line 1: 1 39817U 87020ER 25345.65189113 .00000361 00000-0 24221-2 0 9991

TLE line 2: 2 39817 73.7154 131.4381 0015747 84.9556 294.9678 12.52057126982981

Live tracking on map

Real-time ground track for satellite COSMOS 1823 DEB.

In-orbit conjunctions

A list of the most updated potential collisions computed for object COSMOS 1823 DEB.

Target Orbit TCA Probability of collision Miss distance Type
COSMOS 1257 LEO 2024-10-19 05:35:22 0.0001691142 647.0 (m) PAYLOAD

Associated space launch

A satellite for the GEO-IK geodetic system

COSMOS 1823 DEB was lifted into orbit during the mission ‘Tsiklon-3 | Geo-IK 9’, on board a Tsiklon-3 space rocket.

The launch took place on Feb. 20, 1987, 4:43 a.m. from 32/2.

For more information about the launch, click the button.

Launch to space Tsiklon-3 | Geo-IK 9
Tsiklon-3 | Geo-IK 9

Agency: N/A

Status: Launch Successful

Launch date: Feb. 20, 1987, 4:43 a.m. UTC

Rocket: Tsiklon-3

Launch pad: 32/2

Location: Plesetsk Cosmodrome, Russian Federation

...

Latest news about this satellite

There are no fresh news available about this satellite. Check back as we update our databases every day.


Newsletter sign-up

Weekly statistics, charts and insights to help you stay on top of the space industry.